Timeline UpdatesTrip UpdatesNews PostsPvt Posts♥♥Travel TipsAdmin PostsConv PostsFollowed PostsChat RequestsBlog PostsPNR Posts

Disclaimer
Search
 
 
Sun Dec 21, 2014 03:05:20 ISTHomeTrainsΣChainsAtlasPNRForumGalleryNewsFAQTripsMembersLoginFeedback
No Recent News for this Train
Other Trains in the News **new
Latest...
MST holders permitted to travel in IInd class general coaches between Bhatinda-Rohtak-Delhi
Sun Nov 23, 2014 (08:03PM)
⇐ Return Journey: Train# 19023

19024/Firozpur - Mumbai Central Janta Express

Time-Table HAS CHANGED.
Nov 23 (8:03PM)
Change Departure Station:
Change Arrival Station:
Post a Train Travel TipPost a Train Travel Tip **new
Post a Comment/Question/Picture/VideoPost a Comment/Question/Picture/Video
Inaugural Run
Mon Oct 01, 1956
Pantry/Catering
✕ NO Pantry Car
✓ Catering Avbl
Catering from local vendors
RSA - Rake Sharing
Dedicated Rake.No RSA
Rake/Coach Composition
LOCO<SLR,GS,GS(MST),GS,S-1, S-2, S-3, S-4, S-5, S-6, S-7, S-8,GS,SLR,HCPV=14+1
Loco
TKD WDP-4/4B between FZR-NDLS, GZB WAP5 between NDLS-BCT
News    PNR    Forum    Time-Table    Availability    Fare Chart    Map    Arr/Dep History    Trips    Gallery    ΣChains    X/O    Timeline    
Travel Time: 12h 34m    34 halts    Distance: 567 km    Avg Speed: 45 km/hr
Type: Mail/Express
Zone: WR/Western
Departs @ 07:12 (Avg 16m late)
Platform# ???
SMTWTFS
Meghnagar/MGN 
Arrives @ 19:46 (Avg 2m late)
Platform# 5
SMTWTFS
Mumbai Dadar Western/DDR 

34 halts. 105 intermediate Stations between Meghnagar and Mumbai Dadar Western

Show ALL intermediate Stations  Show Old Time-Table

#TrkCodeStation NameX/OArrivesAvgDepartsAvgHaltPFDay#KmSpeedElevZoneAddress
1|--|FZRFirozpur Cantt. Junction (6)  -05:10 05:05+1611-1200.177200mNRFirozpur Cantt 152001, Punjab
2|--|FDKFaridkot (3)  05:34 05:30+2205:36 05:32+232m11-1167.848202mNRFaridkot, Punjab
3|--|KKPKot Kapura Junction (3)  05:50 05:48+2105:52 05:50+212m11-1155.1750mNRKotkapura, Punjab
4|--|GJUTGangsar Jaitu (3)  06:07 06:03+2306:09 06:05+232m11-1138.847207mNRJaitu, Punjab
5|--|GNAGoneana Bhai Jagta (3)X  06:23+2006:25+212m11-1124.634206mNRGoniana, Punjab
6|--|BTIBathinda Junction (6)  06:55 06:47+1507:05 07:00+1510 13m21-1112.389208mNRBathinda, Punjab
7!==!MAURMaur  07:31 07:24+3107:33 07:26+322m--1-1076.867220mNRMaur Mandi, Punjab
8!==!KTKLKotli Kalan  07:39 07:35-07:41 07:36-2 1m--1-1066.727219mNRState Highway 12A, Punjab
9!==!MSZMansa  07:54 07:55+2307:56 07:57+232m--1-1058.181222mNRMansa, Punjab
10!==!BLZBudhlada  08:09+2808:11+292m--1-1042.071223mNRBudhlada, Punjab
11!==!BRZBareta  08:24+2808:26+292m--1-1026.657223mNRBareta, Punjab
12!==!JHLJakhal Junction  08:43 08:41+2808:45 08:43+282m--1-1012.456225mNRJakhal, Haryana
13|==|TUNTohana (2)  08:56+2908:58+292m--1-1000.276232mNRTohana, Haryana
14|==|NRWNarwana Junction (4)X  09:18+2709:20+272m--1-974.770235mNRKKDE, Haryana
15|==|UCAUchana  09:33+2709:35+272m--1-959.545225mNRDistrict Jind, Haryana
16|==|JINDJind Junction (3)  10:00+2310:05+225m--1-940.881222mNRJind 126102, Haryana
17|==|JNAJulana  10:27 10:24+2810:29 10:26+282m--1-915.165226mNRJulana, Haryana
18|==|ROKRohtak Junction (3)  11:05 10:55+3111:08 11:00+293 5m--1-883.781220mNRRohtak, Haryana
19/==/ISMIsmaila Haryana  11:26 11:14-11:28 11:16-2m--1-864.942221mNRNational Highway 10, Haryana
20/==/SPZSampla  11:32 11:21+3111:34 11:23+312m--1-861.472222mNRSampla, Haryana
21/==/BGZBahadurgarhX  11:49 11:38+3311:51 11:40+332m--1-843.458220mNRBahadurgarh, Haryana
22/==/NNONangloi  12:03 11:53+3712:05 11:55+392m--1-830.928219mNRJJ Colony No 1, Delhi NCT
23/==/MGLPMangolpuri  12:09 12:02+1812:11 12:04+182m--1-827.721217mNROutter Ring Rd, Delhi NCT
24/==/SSBShakur BastiX  12:21 12:16+3012:23 12:18+322m--1-823.532216mNRPitampura, Delhi NCT
25/==/DKZDelhi KishanGanj (2)  12:36 12:31+4112:38 12:33+412m--1-816.511220mNRSarai Rohilla, Delhi NCT
26/==/NDLSNew Delhi (16)XO13:05 12:55+4113:35 13:25+4030m71-812.625215mNRNew Delhi 110002, Delhi NCT
27/==/NZMDelhi Hazrat Nizamuddin (7)O  13:49 13:43+4213:51 13:45+432m11-805.332209mNRNew Delhi 110013, Delhi NCT
28/==/OKAOkhla (4)  13:57 13:52+4113:59 13:53+412 1m--1-801.660221mNRIshwar Nagar Mathura Road, Delhi NCT
29/==/TKDTuglakabad (2)XO  14:06 13:59+4314:08 14:01+432m11-795.644213mNRNear Tughlakabad Metro Station, Delhi NCT
30/==/FDBFaridabad (4)  14:23 14:16+4114:25 14:18+402m31-784.544206mNRold Faridabad, Haryana
31/==/BVHBallabgarh (5)  14:43 14:29+4614:45 14:31+462m--1-776.427203mNRFaridabad, Haryana
32/==/PWLPalwal (8)O  15:18+1715:20+192m--1-755.285200mNRPalwal, Haryana
33/==/KSVKosi Kalan (3)  15:50+4615:52+492m21-712.847189mNCRKosi Kalan, Uttar Pradesh
34/==/CHJChata (4)X  16:03 16:05+4716:05 16:07+482m--1-702.535187mNCRChhata, Uttar Pradesh
35/==/MTJMathura Junction (10)  17:00+2917:05+355m31-671.380179mNCRMathura, Uttar Pradesh
36/==/BTEBharatpur Junction (5)O  17:30+4817:35+495m31-637.872174mWCRBharatpur, Rajasthan
37/==/BXNBayana Junction (3)X  18:10+4918:15+485m--1-595.891198mWCRBayana, Rajasthan
38/==/FSPFateh SinghpuraX  18:28+5218:30+542m--1-576.144223mWCRState Highway 1, Rajasthan
39/==/HANHindaun City (2)  18:48+4918:50+552m--1-562.961230mWCRKarauli, Rajasthan
40/==/SMBJShri Mahabirji (3)X  19:00+5419:02+542m--1-552.754240mWCRKarauli, Rajasthan
41/==/GGCGangapur City (3)  19:50 19:40+4919:55 19:45+565m21-518.668270mWCRGangapur, Rajasthan
42/==/NNWNarayanpur Tatwara (2)  20:11 20:00+1:0120:12 20:02+1:011 2m--1-501.763256mWCRSawai Madhopur, Rajasthan
43/==/MLZMalarnaXO  20:40 20:18+5720:42 20:20+592m21-484.940236mWCRSawai Madhopur, Rajasthan
44/==/SWMSawai Madhopur Junction (4)  21:05+4221:10+465m21-454.778266mWCRSawai Madhopur, Rajasthan
45/==/IDGIndargarh Sumerganj Mandi (2)  21:35 21:38+4921:37 21:40+522m--1-418.566247mWCRIndargarh, Rajasthan
46/==/LKELakheri (3)X  21:47 21:50+5121:49 21:52+542m--1-407.544228mWCRBundi, Rajasthan
47/==/KOTAKota Junction (5)  23:10 23:15+5723:20+1:0310 5m21-346.968256mWCRKota, Rajasthan
48/==/RMARamganj Mandi Junction (3)X  00:23+1:0500:25+1:082m--2-275.657358mWCRRamganj Mandi, Rajasthan
49/==/JHWJhalawar Road (3)XO  00:38+1:0700:40+1:072m--2-263.330361mWCRJhalawar City, Rajasthan
50/==/BWMBhawani Mandi (3)X  01:13+4801:15+512m--2-246.874384mWCRBhawani Mandi, Madhya Pradesh
51/==/SGZShamgarh (3)  01:42+5301:47+545m--2-213.350463mWCRMandsaur, Madhya Pradesh
52/==/SVASuwasra (2)O  02:03+5002:05+512m--2-199.940450mWCRSuwasra, Madhya Pradesh
53/==/CMUChau Mahla (3)X  02:28+4202:30+442m12-184.520426mWCRJhalawar, Rajasthan
54/==/VMAVikramgarh Alot (2)X  03:36+803:38+112m12-162.740443mWCRKota Division, Madhya Pradesh
55/==/MEPMahidpur RoadX  04:13 04:14+404:15+72 1m--2-138.841493mWCRGogapur, Madhya Pradesh
56/==/NADNagda Junction (4)X  04:40+604:45+95m--2-121.764468mWRNagda, Madhya Pradesh
57/==/KUHKhachrod (2)X  04:56 04:58+1204:58 05:00+122m--2-107.937497mWRUjjain, Madhya Pradesh
58/==/RTMRatlam Junction (7)X  05:45+506:00+915m42-80.373495mWRRatlam 457001, Madhya Pradesh
59/==/BMIBamnia (2)  06:35 06:37+1406:37 06:38+152 1m--2-35.572392mWRBamnia, Madhya Pradesh
60/==/THDRThandla Road (2)  06:59 07:01+1607:01 07:02+162 1m--2-8.060317mWRJhabua, Madhya Pradesh
61/==/MGNMeghnagar (3)»  07:08 07:10+1607:10 07:12+162m--20.086317mWRJhabua, Madhya Pradesh
62/==/DHDDahod (3)X  07:35+2507:40+265m--233.168313mWRDahod, Gujarat
63/==/LMKLimkheda  08:07 08:09+2408:09 08:10+252 1m--266.160205mWRLimkheda, Gujarat
64/==/PPDPiplod Junction  08:16 08:18+2308:18 08:19+232 1m--274.079209mWRPiplod, Gujarat
65/==/SATSant Road (2)X  08:26 08:28+2408:28 08:29+252 1m2285.920169mWROrwara, Gujarat
66/==/GDAGodhra Junction (3)X  09:29 09:30+109:34 09:35+45m12106.279122mWRGodhra, Gujarat
67/==/DRLDerol  09:53+709:55+72m--2129.87981mWRKalol, Gujarat
68/==/SMLASamlaya Junction (3)  10:13+810:15+72m--2153.55367mWRVadodara, Gujarat
69/==/BRCVadodara Junction (7)X10:45+910:55+810m12180.18936mWRVadodara 390005, Gujarat
70/==/MYGMiyagam Karjan (2)  11:15+1611:17+152m22210.08329mWRKarjan, Gujarat
71/==/PLJPalej (4)  11:28+1611:30+162m--2225.28029mWRPalej, Gujarat
72/==/NIUNabipur (3)X  11:40+2211:42+212m--2238.65224mWRNabipur, Gujarat
73/==/BHBharuch Junction (5)X  11:56+2111:58+242m22250.66219mWRBharuch, Gujarat
74/==/AKVAnkleshwar Junction (4)O  12:07+1712:09+182m22260.04819mWRAnkleshwar, Gujarat
75/==/PAOPanoli (3)  12:22+2412:24+242m--2270.36229mWRPanoli, Gujarat
76/==/KSBKosamba Junction (3)XO  12:32+2512:34+242m22278.55830mWRKosamba, Gujarat
77/==/KIMKim (2)  12:42+2112:44+222m--2286.33118mWRNH 8, Gujarat
78/==/STSurat (4)X  13:30+1013:35+105m22309.97119mWRSurat 395001, Gujarat
79/==/MRLMaroli (3)O  13:53+1913:55+202m22331.14615mWRMaroli, Gujarat
80/==/NVSNavsari (3)  14:06+1714:08+192m22339.55514mWRNavsari, Gujarat
81/==/AMLAmalsad (3)  14:25+1714:27+172m22355.13712mWRAmalsad, Gujarat
82/==/BIMBilimora Junction (4)XO  14:36+1414:38+162m22360.73611mWRBilimora, Gujarat
83/==/BLValsad (3)X  15:08+1115:10+152m32378.64915mWRValsad, Gujarat
84/==/PADPardi (3)X  15:24 15:23+1415:26 15:25+142m--2389.34519mWRValsad, Gujarat
85/==/UVDUdvada (3)  15:33+1215:35+132m--2395.35218mWRUdvada, Gujarat
86/==/VAPIVapi (3)X  15:46+1215:48+192m22404.93427mWRVapi, Gujarat
87/==/BLDBhilad (3)XO  16:08+1516:10+152m--2416.16933mWRBhilad, Gujarat
88/==/SJNSanjan (3)XO  16:20+1616:22+152m--2427.75422mWRSanjan, Gujarat
89/==/UBRUmbargam Road (3)X  16:28+1716:30+172m--2433.14730mWRUmbergaon, Gujarat
90/==/DRDDahanu Road (5)XO  16:56+1016:58+112m--2453.47412mWRDahanu, Maharashtra
91/==/VGNVangaon (3)XO  17:08+1117:10+112m--2465.77111mWRDist. Palghar, Maharashtra
92/==/BORBoisar (3)XO  17:18+1017:20+102m32475.16117mWRBoisar Tel.no-02525-266626, Maharashtra
93/==/PLGPalghar (3)XO  17:31+917:33+112m22486.45719mWRPalghar, Maharashtra
94/==/VRVirar (8)XO  18:06+718:08+92m42517.5526mWRDist. Palghar, Maharashtra
95/==/BVIMumbai Borivali (8)  18:38+218:40+62m52543.32219mWRMumbai - 400092, Maharashtra
96/==/DDRMumbai Dadar Western (6)•  19:46+219:48+42m52567.1166mWRMumbai, Maharashtra
97/==/BCTMumbai Central (9)  20:10+0-52573.0-3mWRMumbai 400008, Maharashtra
Scroll to Top
Scroll to Bottom


Go to Mobile site